Regional Weather Roundup
Issued by NWS Sioux Falls, SD

Home | Current Version | Previous Version | Text Only | Print | Product List | Glossary On
Versions: 1 2 3 4 5 6 7 8 9 10 11 12 13 14 15 16 17 18 19 20 21 22 23 24 25 26 27 28 29 30 31 32 33 34 35 36 37 38 39 40 41 42 43 44 45 46 47 48 49 50
000
ASUS43 KFSD 191602
RWRFSD

WEATHER ROUNDUP FOR SE SOUTH DAKOTA/SW MINNESOTA/NW IOWA
NATIONAL WEATHER SERVICE SIOUX FALLS SD
1100 AM CDT SUN APR 19 2015

NOTE: "FAIR" INDICATES FEW OR NO CLOUDS BELOW 12,000 FEET WITH NO
SIGNIFICANT WEATHER AND OR OBSTRUCTIONS TO VISIBILITY.


SDZ038>040-050-052>070-191700-
SOUTHEAST SOUTH DAKOTA

CITY           SKY/WX    TMP DP  RH WIND       PRES   REMARKS
BROOKINGS      CLOUDY    46  43  87 NW23G33   29.78R
CHAMBERLAIN    NOT AVBL
HURON          CLOUDY    50  38  63 NW29G35   29.84S
MADISON        CLOUDY    46  46 100 NW24G33   29.79R
MITCHELL       CLOUDY    50  38  63 NW29G37   29.85S
SIOUX FALLS    CLOUDY    49  44  83 NW22G32   29.77R
WINNER         FAIR      51  30  44 NW26G37   29.94S
YANKTON        CLOUDY    46  41  81 NW30G36   29.82R
$$

MNZ071-072-080-081-089-090-097-098-191700-
SOUTHWEST MINNESOTA

CITY           SKY/WX    TMP DP  RH WIND       PRES   REMARKS
FAIRMONT       CLOUDY    59  48  67 W7        29.68S
JACKSON        CLOUDY    52  50  93 NW17      29.71R
LUVERNE        CLOUDY    54  45  71 NW17G25   29.75R
MARSHALL       CLOUDY    50  43  76 NW18G28   29.73R
MONTEVIDEO     CLOUDY    50  50 100 N14G24    29.72R
PIPESTONE      CLOUDY    50  45  81 N26G33    29.74S
REDWOOD FALLS  CLOUDY    53  48  83 NW14      29.69R
TRACY          CLOUDY    52  48  86 NW17      29.72S
WORTHINGTON    CLOUDY    54  46  76 NW17      29.72S
$$

IAZ001>003-012>014-020>022-031-032-NEZ013-014-SDZ071-191700-
NORTHWEST IOWA

CITY           SKY/WX    TMP DP  RH WIND       PRES   REMARKS
DENISON        LGT RAIN  55  55 100 NW13      29.69S
ESTHERVILLE    CLOUDY    57  54  89 NW18      29.68F
SIOUX CITY     LGT RAIN  53  47  79 N21G30    29.74F
SPENCER        CLOUDY    57  53  86 NW18      29.70S
$$

ABBREVIATIONS USED IN REMARKS
   TC - TEMPERATURE IN CELSIUS
  WCI - WIND CHILL INDEX
   HX - HEAT INDEX
  VSB - VISIBILITY




USA.gov is the U.S. government's official web portal to all federal, state and local government web resources and services.